| time (UTC) | temp F | wind direction | speed knots | gust knots | rain 1hr in | rain 24hr in | rain mn in | humidity % | barometer mb |
| 20260504050002 | 0 | 0.0 | 1.7 | 0.00 | 0.00 | 0.00 | 1009.7 | ||
| 20260504044502 | 0 | 0.0 | 0.9 | 0.00 | 0.00 | 0.00 | 1009.7 | ||
| 20260504043001 | 0 | 0.0 | 0.9 | 0.00 | 0.00 | 0.00 | 1009.7 | ||
| 20260504041501 | 0 | 0.0 | 0.9 | 0.00 | 0.00 | 0.00 | 1009.7 | ||
| 20260504040001 | 0 | 0.0 | 0.9 | 0.00 | 0.00 | 0.00 | 1009.7 | ||
| 20260504034501 | 0 | 0.0 | 0.0 | 0.00 | 0.00 | 0.00 | 1009.6 | ||
| 20260504033001 | 0 | 0.0 | 0.9 | 0.00 | 0.00 | 0.00 | 1009.5 | ||
| 20260504031502 | 0 | 0.0 | 0.9 | 0.00 | 0.00 | 0.00 | 1009.5 | ||
| 20260504030002 | 0 | 0.9 | 2.6 | 0.00 | 0.00 | 0.00 | 1009.5 | ||
| 20260504024502 | 0 | 0.0 | 0.9 | 0.00 | 0.00 | 0.00 | 1009.6 | ||
| 20260504023001 | 0 | 0.0 | 1.7 | 0.00 | 0.00 | 0.00 | 1009.6 | ||
| 20260504021501 | 0 | 0.0 | 0.9 | 0.00 | 0.00 | 0.00 | 1009.6 | ||
| 20260504020002 | 0 | 0.0 | 0.9 | 0.00 | 0.00 | 0.00 | 1009.8 | ||
| 20260504014502 | 0 | 0.0 | 0.9 | 0.00 | 0.00 | 0.00 | 1009.8 | ||
| 20260504013002 | 0 | 0.9 | 2.6 | 0.00 | 0.00 | 0.00 | 1009.8 | ||
| 20260504011501 | 0 | 0.0 | 0.9 | 0.00 | 0.00 | 0.00 | 1009.8 | ||
| 20260504010001 | 0 | 0.0 | 0.9 | 0.00 | 0.00 | 0.00 | 1009.8 | ||
| 20260504004501 | 0 | 0.0 | 0.0 | 0.00 | 0.00 | 0.00 | 1010.1 | ||
| 20260504003002 | 0 | 0.0 | 3.5 | 0.00 | 0.00 | 0.00 | 1010.1 | ||
| 20260504001502 | 0 | 0.0 | 1.7 | 0.00 | 0.00 | 0.00 | 1010.2 | ||
| 20260504000002 | 0 | 0.0 | 0.9 | 0.00 | 0.00 | 0.00 | 1010.4 | ||
| 20260503234501 | 0 | 0.0 | 3.5 | 0.00 | 0.00 | 0.00 | 1010.4 | ||
| 20260503233001 | 0 | 0.0 | 3.5 | 0.00 | 0.00 | 0.00 | 1010.4 | ||
| 20260503231501 | 0 | 0.0 | 0.0 | 0.00 | 0.00 | 0.00 | 1010.5 | ||
| 20260503230002 | 0 | 0.0 | 0.9 | 0.00 | 0.00 | 0.00 | 1010.7 | ||
| 20260503224502 | 0 | 0.0 | 0.9 | 0.00 | 0.00 | 0.00 | 1010.6 | ||
| 20260503223002 | 0 | 0.0 | 0.9 | 0.00 | 0.00 | 0.00 | 1010.4 | ||
| 20260503221502 | 0 | 0.0 | 0.9 | 0.00 | 0.00 | 0.00 | 1010.4 |